Regional Weather Roundup
Issued by NWS

Home | Current Version | Previous Version | Text Only | Print | Product List | Glossary Off
Versions: 1 2 3 4 5 6 7 8 9 10 11 12 13 14 15 16 17 18 19 20 21 22 23 24 25 26 27 28 29 30 31 32 33 34 35 36 37 38 39 40 41 42 43 44 45 46 47 48 49 50

000
ASUS43 KMKX 250500
RWRWI

WISCONSIN REGIONAL WEATHER ROUNDUP
NATIONAL WEATHER SERVICE MILWAUKEE/SULLIVAN WI
1200 AM CDT SAT OCT 25 2014

NOTE: "FAIR" INDICATES FEW OR NO CLOUDS BELOW 12,000 FEET WITH NO
SIGNIFICANT WEATHER AND/OR OBSTRUCTIONS TO VISIBILITY.

WIZ001-002-006>008-014>016-023>028-250600-
NORTHWEST WISCONSIN

CITY           SKY/WX    TMP DP  RH WIND       PRES   REMARKS
SUPERIOR ARPT  FAIR      56  46  69 SW7       29.78R
ASHLAND        PTCLDY    56  51  84 SW10      29.78R
HAYWARD        MOCLDY    53  51  93 CALM      29.81S FOG
SIREN          PTCLDY    57  48  73 W9        29.83R
CUMBERLAND       N/A     50  50 100 SW6       29.84S FOG
RICE LAKE      FOG       53  51  95 CALM      29.85F VSB 1/4
CHETEK         MOCLDY    53  53  98 CALM      29.84S FOG
LADYSMITH      CLOUDY    56  55  95 SW8       29.85S FOG
EAU CLAIRE     NOT AVBL
MENOMONIE      NOT AVBL
NEW RICHMOND   CLEAR     50  50 100 SW8       29.86R FOG
OSCEOLA        PTCLDY    52  52 100 SW5       29.88R FOG
$$

WIZ003>005-009-010-017-018-250600-
NORTH CENTRAL WISCONSIN

CITY           SKY/WX    TMP DP  RH WIND       PRES   REMARKS
MANITOWISH WTR MOCLDY    52  52  98 SW6       29.79S
ARBOR VITAE    MOCLDY    57  54  89 SW6       29.80S
WOODRUFF       MOCLDY    57  54  89 SW6       29.80S
RHINELANDER    CLOUDY    53  51  93 SW9       29.82F
EAGLE RIVER    CLOUDY    53  48  84 SW8       29.79S
LAND O LAKES   MOCLDY    54  50  86 SW7       29.79S
PHILLIPS       CLOUDY    54  52  94 SW10      29.81F
TOMAHAWK       CLOUDY    54  51  90 CALM      29.83F
MEDFORD        CLOUDY    54  53  97 SW6       29.84F FOG
MERRILL        CLOUDY    56  54  94 W8        29.83F
$$

WIZ029-030-035-036-043>047-250600-
CENTRAL WISCONSIN

CITY           SKY/WX    TMP DP  RH WIND       PRES   REMARKS
WAUSAU         CLOUDY    56  53  90 W9        29.82F
MOSINEE        CLOUDY    54  54 100 W9        29.86F
MARSHFIELD     CLOUDY    56  54  93 W10       29.85F FOG
STEVENS POINT  CLOUDY    55  53  91 W10       29.86F
WAUPACA        CLOUDY    58  55  90 SW7       29.85S
WAUTOMA        NOT AVBL
WISC RAPIDS    CLOUDY    56  55  97 W7        29.87F FOG
CAMP DOUGLAS   NOT AVBL
$$

WIZ011>013-019>022-031-037>040-048>050-250600-
NORTHEAST WISCONSIN

CITY           SKY/WX    TMP DP  RH WIND       PRES   REMARKS
ANTIGO         CLOUDY    53  52  96 W9        29.82F
SHAWANO        CLOUDY    54  51  90 SW5       29.84S
OCONTO         CLOUDY    51  51 100 S3        29.81F
STURGEON BAY   MOCLDY    52  48  87 S9        29.82F
GREEN BAY      MOCLDY    53  50  89 S7        29.83F
MANITOWOC      NOT AVBL
APPLETON       CLOUDY    52  50  93 SW6       29.85F
CLINTONVILLE   CLOUDY    52  50  93 CALM      29.84S
OSHKOSH        CLOUDY    56  51  84 SW6       29.85F
$$

WIZ032>034-041-042-053>061-250600-
SOUTHWEST WISCONSIN

CITY           SKY/WX    TMP DP  RH WIND       PRES   REMARKS
LA CROSSE      CLOUDY    58  55  90 S5        29.89S
SPARTA         CLOUDY    52  51  97 CALM      29.90S FOG
VIROQUA        CLOUDY    56  56 100 W5        29.91S
BOSCOBEL       CLOUDY    60  57  89 SW6       29.91F FOG
PRAIRIE DU CHI CLOUDY    59  57  92 CALM      29.91F FOG
PLATTEVILLE    MOCLDY    56  55  97 CALM      29.93F
$$

WIZ056-057-062-063-064-067-068-250600-
SOUTH CENTRAL WISCONSIN

CITY           SKY/WX    TMP DP  RH WIND       PRES   REMARKS
REEDSBURG      CLOUDY    57  55  95 W6        29.89S FOG
BARABOO/DELLS  CLOUDY    56  54  91 W6        29.88F FOG
LONE ROCK      HAZE      57  54  88 W5        29.90S VSB 1
MINERAL POINT  CLOUDY    59  55  88 W12       29.92S FOG
MADISON        CLOUDY    55  50  83 CALM      29.89F
MIDDLETON      MOCLDY    58  56  92 W3        29.90F
WATERTOWN      CLOUDY    55  51  85 SW6       29.89S
MONROE         MOCLDY    55  54  94 W10       29.91F
JANESVILLE     CLOUDY    57  46  67 SW6       29.91F
$$

WIZ051-052-058>065-066-070>072-250600-
SOUTHEAST WISCONSIN

CITY           SKY/WX    TMP DP  RH WIND       PRES   REMARKS
MILWAUKEE      CLOUDY    56  49  77 SW8       29.90F
WAUKESHA       CLOUDY    52  48  87 S6        29.90F
MILWAUKEE/TIMM CLOUDY    55  46  71 SW5       29.89F
RACINE         CLOUDY    57  48  72 SW8       29.91F
BURLINGTON     MOCLDY    53  48  84 SW6       29.91F
KENOSHA        CLOUDY    56  50  80 SW5       29.91F
FOND DU LAC    CLOUDY    55  49  80 SW8       29.86F
SHEBOYGAN      CLOUDY    51  49  92 S7        29.85F
WEST BEND      CLOUDY    57  46  67 SW8       29.88S
JUNEAU         CLOUDY    53  50  90 S7        29.89F
$$

LSZ147-162-250600-
LAKE SUPERIOR

STATION/POSITION TIME  TEMP    WIND        PRES    WAVE
                       AIR SEA DIR/SP/G            HT/PER
                 (UTC) (F)     (DEG/KT/KT) (MB)    (FT/S)
W MID LAKE BUOY  0350   51 47  220/ 19/ 23 1004.1F   4/ 5
DEVILS ISLAND    0400   58     240/ 25/ 28 1005.7R
PORT WING        0400   60     210/  8/ 12 1007.5R
SAXON HARBOR     0440   60     200/ 11/ 22 1007.5R
$$

LMZ867-665-643>646-250600-
LAKE MICHIGAN

STATION/POSITION TIME  TEMP    WIND        PRES    WAVE
                       AIR SEA DIR/SP/G            HT/PER
                 (UTC) (F)     (DEG/KT/KT) (MB)    (FT/S)
CHAMBERS ISLAND  0400   51     180/  8/ 13 1009.8
N MID LAKE BUOY  0350   50 51  210/ 19/ 23 1010.0F   5/ 5
NORTHPORT PIER   0400                      1009.8F
SISTER BAY       0342          170/ 11/ 14   N/A
ALGOMA LAKESHORE 0341          220/ 14/ 16   N/A
KEWAUNEE LAKESHO 0400   51     180/ 11/ 11 1010.1F
SHEBOYGAN LAKESH 0400   52 51  180/ 10/ 11 1012.3F
PORT WASHINGTON  0400   53     180/  3/  4 1012.9F
ATWATER BUOY     0400   53     180/  8/  8 1013.7F
MILWAUKEE LAKESH 0400   55     210/  5/  5   N/A
S MID LAKE BUOY  0350   57 54  200/ 12/ 12 1013.3F   0
KENOSHA   LAKESH 0400   55     180/  5/  6 1013.2F
$$

TC  - TEMPERATURE IN CELSIUS
VSB - VISIBILITY IN STATUTE MILES
WCI - WIND CHILL INDEX
HX  - HEAT INDEX




USA.gov is the U.S. government's official web portal to all federal, state and local government web resources and services.